This is the latest recevied weather packets stored in our database for station/object W6ORV. If no packets are shown the sender has not sent any weather packets the latest 1 day(s).
| Time | Temp. | Humidity | Pressure | Rain* | Wind** | Luminosity | Snow |
|---|---|---|---|---|---|---|---|
| 1778000733 | 14.44° C | 71% | 4300.4 hPa | 0 mm | 0 m/s | 701 W/m² | - |
| 1778000429 | 13.89° C | 72% | 4300.4 hPa | 0 mm | 0 m/s | 520 W/m² | - |
| 1778000125 | 13.33° C | 74% | 4300.3 hPa | 0 mm | 0 m/s | 416 W/m² | - |
| 1777999820 | 13.33° C | 76% | 4300.4 hPa | 0 mm | 0 m/s | 342 W/m² | - |
| 1777999517 | 13.33° C | 76% | 4300.3 hPa | 0 mm | 0 m/s | 695 W/m² | - |
| 1777999215 | 12.78° C | 77% | 4300.3 hPa | 0 mm | 0 m/s | 382 W/m² | - |
| 1777998913 | 12.78° C | 78% | 4300.3 hPa | 0 mm | 0 m/s | 366 W/m² | - |
| 1777998609 | 12.78° C | 79% | 4300.3 hPa | 0 mm | 0 m/s | 308 W/m² | - |
| 1777998303 | 12.22° C | 80% | 4300.4 hPa | 0 mm | 0 m/s | 249 W/m² | - |
| 1777997999 | 12.22° C | 81% | 4300.4 hPa | 0 mm | 0 m/s | 258 W/m² | - |
| 1777997696 | 12.22° C | 81% | 4300.2 hPa | 0 mm | 0 m/s | 233 W/m² | - |
| 1777997393 | 11.67° C | 83% | 4300.2 hPa | 0 mm | 0 m/s | 209 W/m² | - |
| 1777997092 | 11.67° C | 85% | 4300 hPa | 0 mm | 0 m/s | 206 W/m² | - |
| 1777996788 | 11.11° C | 85% | 4300.4 hPa | 0 mm | 0 m/s | 175 W/m² | - |
| 1777996484 | 11.11° C | 86% | 4300.2 hPa | 0 mm | 0 m/s | 202 W/m² | - |
| 1777996181 | 11.11° C | 87% | 4300.1 hPa | 0 mm | 0 m/s | 200 W/m² | - |
| 1777995878 | 10.56° C | 88% | 4300 hPa | 0 mm | 0 m/s | 188 W/m² | - |
| 1777995573 | 10.56° C | 88% | 4300 hPa | 0 mm | 0 m/s | 155 W/m² | - |
| 1777995271 | 10.56° C | 89% | 4300.2 hPa | 0 mm | 0 m/s | 144 W/m² | - |
| 1777994968 | 10.56° C | 90% | 4300.2 hPa | 0 mm | 0 m/s | 150 W/m² | - |
| 1777994666 | 10° C | 90% | 4300.2 hPa | 0 mm | 0 m/s | 85 W/m² | - |
| 1777994365 | 10° C | 90% | 4300.2 hPa | 0 mm | 0 m/s | 93 W/m² | - |
| 1777994061 | 10° C | 91% | 4300 hPa | 0 mm | 0 m/s | 110 W/m² | - |
| 1777993759 | 10° C | 91% | 4300 hPa | 0 mm | 0 m/s | 106 W/m² | - |
| 1777993456 | 10° C | 91% | 4299.8 hPa | 0 mm | 0 m/s | 86 W/m² | - |
* Rain latest hour (hover to see other rain measurements)
** Current wind speed in m/s (hover to see current wind gust speed)